Grand Junction, CO

2:27 AM MST on January 21, 2018 (GMT -0700)
Walker

Weather History for KGJT - November, 2013

Change the Weather History Date:

Thursday, November 28, 2013

  Actual Average Record
Temperature  
Mean Temperature 34 °F 33 °F  
Max Temperature 39 °F 44 °F 60 °F (1949)
Min Temperature 28 °F 23 °F -2 °F (1976)
Degree Days  
Heating Degree Days 31 32  
Month to date heating degree days 708 713  
Since 1 July heating degree days 1278 1161  
Cooling Degree Days 0 0  
Month to date cooling degree days 0 0  
Year to date cooling degree days 1269 1125  
Moisture  
Dew Point 30 °F    
Average Humidity 91    
Maximum Humidity 100    
Minimum Humidity 82    
Precipitation  
Precipitation 0.00 in 0.02 in 0.53 in (1928)
Month to date precipitation 1.05 0.69  
Year to date precipitation 11.47 8.79  
Snow  
Snow 0.00 in 0.10 in 6.80 in (2004)
Month to date snowfall 4.7 1.9  
Since 1 July snowfall 4.8 2.3  
Since 1 September snowfall 4.8 2.3  
Snow Depth 0.00 in    
Sea Level Pressure  
Sea Level Pressure 30.28 in    
Wind  
Wind Speed 5 mph (NW)    
Max Wind Speed 14 mph    
Max Gust Speed 17 mph    
Visibility 9 miles    
Events      
T = Trace of Precipitation, MM = Missing Value Source: NWS Daily Summary

Daily Weather History Graph

Daily Weather History Graph

Search for Another Location

Airport or City:

Trip Planner

Search our weather history database for the weather conditions in past years. The results will help you decide how hot, cold, wet, or windy it might be!

Date:

Astronomy

Nov. 28, 2013 Rise Set
Actual Time 7:11 AM MST 4:52 PM MST
Civil Twilight 6:42 AM MST 5:22 PM MST
Nautical Twilight 6:09 AM MST 5:55 PM MST
Astronomical Twilight 5:37 AM MST 6:27 PM MST
Moon 2:19 AM MST (11/28) 2:02 PM MST (11/28)
Length of Visible Light 10h 39m
Length of Day
9h 40m
Waning Crescent, 22% of the Moon is Illuminated
Nov 28
Waning Crescent
Dec 2
New
Dec 9
First Quarter
Dec 17
Full
Dec 25
Last Quarter

Hourly Weather History & Observations

Time (MST) Temp. Windchill Dew Point Humidity Pressure Visibility Wind Dir Wind Speed Gust Speed Precip Events Conditions
12:14 AM 28.4 °F - 28.4 °F 100% 30.24 in 6.0 mi Calm Calm - N/A   Mostly Cloudy
12:53 AM 30.0 °F 26.5 °F 28.9 °F 96% 30.25 in 8.0 mi East 3.5 mph - N/A   Overcast
1:53 AM 30.0 °F 26.5 °F 30.0 °F 100% 30.25 in 4.0 mi SE 3.5 mph - N/A   Overcast
2:53 AM 30.9 °F 26.2 °F 30.0 °F 96% 30.25 in 5.0 mi ESE 4.6 mph - N/A   Overcast
3:53 AM 30.9 °F 27.5 °F 30.0 °F 96% 30.25 in 9.0 mi East 3.5 mph - N/A   Overcast
4:53 AM 32.0 °F - 30.0 °F 92% 30.25 in 8.0 mi Calm Calm - N/A   Overcast
5:53 AM 30.9 °F 26.2 °F 28.9 °F 92% 30.28 in 10.0 mi ESE 4.6 mph - N/A   Overcast
6:53 AM 30.0 °F - 28.0 °F 92% 30.29 in 6.0 mi Calm Calm - N/A   Mostly Cloudy
7:50 AM 28.4 °F - 28.4 °F 100% 30.26 in 7.0 mi Calm Calm - N/A   Scattered Clouds
7:53 AM 28.9 °F - 28.0 °F 96% 30.30 in 7.0 mi Calm Calm - N/A   Scattered Clouds
8:35 AM 30.2 °F - 28.4 °F 93% 30.27 in 10.0 mi Calm Calm - N/A   Mostly Cloudy
8:53 AM 32.0 °F 28.7 °F 28.0 °F 85% 30.31 in 9.0 mi East 3.5 mph - N/A   Mostly Cloudy
9:53 AM 33.1 °F - 28.9 °F 85% 30.31 in 10.0 mi Calm Calm - N/A   Mostly Cloudy
10:35 AM 33.8 °F - 28.4 °F 81% 30.26 in 10.0 mi Calm Calm - 0.00 in   Mostly Cloudy
10:42 AM 35.6 °F 31.7 °F 30.2 °F 81% 30.26 in 10.0 mi NNW 4.6 mph - 0.00 in   Mostly Cloudy
10:53 AM 34.0 °F 29.8 °F 30.0 °F 85% 30.30 in 9.0 mi NW 4.6 mph - 0.00 in   Mostly Cloudy
11:53 AM 36.0 °F 32.1 °F 30.0 °F 79% 30.27 in 9.0 mi NNW 4.6 mph - 0.00 in   Scattered Clouds
12:53 PM 37.9 °F 32.1 °F 32.0 °F 79% 30.25 in 9.0 mi NNW 8.1 mph - N/A   Scattered Clouds
1:53 PM 37.9 °F 30.5 °F 32.0 °F 79% 30.24 in 9.0 mi NNW 11.5 mph - N/A   Clear
2:53 PM 37.9 °F 30.9 °F 32.0 °F 79% 30.24 in 9.0 mi NW 10.4 mph - N/A   Scattered Clouds
3:53 PM 36.0 °F 28.5 °F 30.9 °F 82% 30.25 in 9.0 mi WNW 10.4 mph - N/A   Clear
4:53 PM 33.1 °F 26.1 °F 30.0 °F 89% 30.26 in 9.0 mi NW 8.1 mph - N/A   Clear
5:41 PM 33.8 °F 26.4 °F 30.2 °F 87% 30.23 in 9.0 mi NW 9.2 mph - N/A   Mostly Cloudy
5:53 PM 33.1 °F 26.1 °F 30.9 °F 92% 30.28 in 9.0 mi NW 8.1 mph - N/A   Overcast
6:53 PM 33.1 °F 25.5 °F 30.9 °F 92% 30.29 in 9.0 mi NW 9.2 mph - N/A   Overcast
7:53 PM 33.1 °F 28.7 °F 30.0 °F 89% 30.30 in 10.0 mi WNW 4.6 mph - N/A   Overcast
8:53 PM 33.1 °F 28.7 °F 30.0 °F 89% 30.30 in 10.0 mi WNW 4.6 mph - N/A   Overcast
9:07 PM 33.8 °F 28.6 °F 30.2 °F 87% 30.27 in 10.0 mi WNW 5.8 mph - N/A   Overcast
9:53 PM 32.0 °F 26.4 °F 30.0 °F 92% 30.32 in 10.0 mi WNW 5.8 mph - N/A   Overcast
10:53 PM 32.0 °F 26.4 °F 30.0 °F 92% 30.33 in 9.0 mi WNW 5.8 mph - N/A   Overcast
11:53 PM 32.0 °F 26.4 °F 30.0 °F 92% 30.33 in 10.0 mi WNW 5.8 mph - N/A   Overcast